Sharm El Sheikh, Egypt

10:01 AM EET on August 22, 2017 (GMT +0200)
Sharm El Sheikh

Weather History for HESH - April, 2014

Change the Weather History Date:

Thursday, April 24, 2014

  Actual Average Record
Temperature  
Mean Temperature 86 °F -  
Max Temperature 95 °F 92 °F - ()
Min Temperature 78 °F 73 °F - ()
Cooling Degree Days 22    
Growing Degree Days 36 (Base 50)    
Moisture  
Dew Point 54 °F    
Average Humidity 34    
Maximum Humidity 47    
Minimum Humidity 20    
Precipitation  
Precipitation 0.00 in 0.00 in - ()
Sea Level Pressure  
Sea Level Pressure 29.75 in    
Wind  
Wind Speed 10 mph ()    
Max Wind Speed 21 mph    
Max Gust Speed -    
Visibility 6.2 miles    
Events      
T = Trace of Precipitation, MM = Missing Value Source: Averaged Metar Reports

Daily Weather History Graph

Daily Weather History Graph

Search for Another Location

Airport or City:

Trip Planner

Search our weather history database for the weather conditions in past years. The results will help you decide how hot, cold, wet, or windy it might be!

Date:

Astronomy

Apr. 24, 2014 Rise Set
Actual Time 5:09 AM EET 6:12 PM EET
Civil Twilight 4:44 AM EET 6:37 PM EET
Nautical Twilight 4:15 AM EET 7:06 PM EET
Astronomical Twilight 3:46 AM EET 7:35 PM EET
Moon 1:38 AM EET (4/24) 1:30 PM EET (4/24)
Length of Visible Light 13h 52m
Length of Day
13h 03m
Waning Crescent, 27% of the Moon is Illuminated
Apr 24
Waning Crescent
Apr 29
New
May 7
First Quarter
May 14
Full
May 21
Last Quarter

Hourly Weather History & Observations

Time (EET) Temp. Heat Index Dew Point Humidity Pressure Visibility Wind Dir Wind Speed Gust Speed Precip Events Conditions
12:00 AM 80.6 °F - 50.0 °F 34% 29.80 in - North 9.2 mph - N/A   Clear
1:00 AM 80.6 °F 80.5 °F 55.4 °F 42% 29.77 in - North 13.8 mph - N/A   Clear
2:00 AM 80.6 °F - 50.0 °F 34% 29.74 in - North 12.7 mph - N/A   Clear
3:00 AM 78.8 °F - 55.4 °F 44% 29.74 in - North 17.3 mph - N/A   Clear
4:00 AM 78.8 °F - 55.4 °F 44% 29.74 in - North 18.4 mph - N/A   Clear
5:00 AM 78.8 °F - 57.2 °F 47% 29.77 in - North 13.8 mph - N/A   Clear
6:00 AM 78.8 °F - 57.2 °F 47% 29.77 in - North 20.7 mph - N/A   Clear
7:00 AM 82.4 °F - 51.8 °F 35% 29.77 in - North 12.7 mph - N/A   Clear
8:00 AM 82.4 °F 82.0 °F 57.2 °F 42% 29.80 in - North 11.5 mph - N/A   Clear
9:00 AM 86.0 °F 84.5 °F 55.4 °F 35% 29.80 in - North 18.4 mph - N/A   Clear
10:00 AM 89.6 °F 87.3 °F 53.6 °F 29% 29.80 in - NNE 17.3 mph - N/A   Clear
11:00 AM 87.8 °F 86.1 °F 55.4 °F 33% 29.80 in - North 13.8 mph - N/A   Clear
12:00 PM 93.2 °F 91.9 °F 57.2 °F 30% 29.77 in - NNE 6.9 mph - N/A   Clear
1:00 PM 95.0 °F - 48.2 °F 20% 29.74 in - NNE 10.4 mph - N/A   Clear
2:00 PM 95.0 °F - 48.2 °F 20% 29.71 in - NE 8.1 mph - N/A   Clear
3:00 PM 95.0 °F - 48.2 °F 20% 29.71 in - ENE 5.8 mph - N/A   Clear
4:00 PM 93.2 °F - 50.0 °F 23% 29.68 in - East 5.8 mph - N/A   Clear
5:00 PM 93.2 °F - 50.0 °F 23% 29.71 in 6.2 mi ESE 5.8 mph - N/A   Mostly Cloudy
6:00 PM 87.8 °F 86.5 °F 57.2 °F 35% 29.71 in 6.2 mi South 3.5 mph - N/A   Mostly Cloudy
7:00 PM 86.0 °F 84.2 °F 53.6 °F 33% 29.74 in 6.2 mi Calm Calm - N/A   Mostly Cloudy
8:00 PM 86.0 °F - 51.8 °F 31% 29.74 in - West 2.3 mph - N/A   Clear
9:00 PM 86.0 °F 84.5 °F 55.4 °F 35% 29.74 in - Calm Calm - N/A   Clear
10:00 PM 82.4 °F 82.0 °F 57.2 °F 42% 29.77 in - Calm Calm - N/A   Clear
11:00 PM 80.6 °F 80.5 °F 55.4 °F 42% 29.74 in - North 4.6 mph - N/A   Clear